| time (UTC) | temp F | wind direction | speed MPH | gust MPH | rain 1hr in | rain 24hr in | rain mn in | humidity % | barometer mb |
| 20260504050737 | 55 | 226 | 1.0 | 1.0 | 0.00 | 0.00 | 0.00 | 74 | 1010.4 |
| 20260504050235 | 55 | 210 | 1.0 | 2.0 | 0.00 | 0.00 | 0.00 | 74 | 1010.4 |
| 20260504045732 | 55 | 184 | 2.0 | 2.0 | 0.00 | 0.06 | 0.06 | 74 | 1010.4 |
| 20260504045227 | 55 | 255 | 0.0 | 2.0 | 0.00 | 0.06 | 0.06 | 73 | 1010.6 |
| 20260504044725 | 55 | 232 | 1.0 | 2.0 | 0.00 | 0.06 | 0.06 | 73 | 1010.5 |
| 20260504044222 | 55 | 231 | 1.0 | 2.0 | 0.00 | 0.06 | 0.06 | 73 | 1010.7 |
| 20260504043719 | 55 | 184 | 2.0 | 2.0 | 0.00 | 0.06 | 0.06 | 73 | 1010.7 |
| 20260504043216 | 55 | 216 | 1.0 | 2.0 | 0.00 | 0.06 | 0.06 | 73 | 1010.9 |
| 20260504042714 | 55 | 220 | 1.0 | 2.0 | 0.00 | 0.06 | 0.06 | 73 | 1010.8 |
| 20260504042210 | 55 | 220 | 2.0 | 2.0 | 0.00 | 0.06 | 0.06 | 74 | 1010.9 |
| 20260504041706 | 55 | 252 | 0.0 | 1.0 | 0.00 | 0.06 | 0.06 | 73 | 1010.9 |
| 20260504041201 | 56 | 216 | 2.0 | 2.0 | 0.00 | 0.06 | 0.06 | 73 | 1011.0 |
| 20260504040659 | 56 | 222 | 1.0 | 2.0 | 0.00 | 0.06 | 0.06 | 73 | 1010.9 |
| 20260504040156 | 56 | 228 | 0.0 | 1.0 | 0.00 | 0.06 | 0.06 | 73 | 1011.3 |
| 20260504035652 | 56 | 238 | 1.0 | 4.0 | 0.00 | 0.06 | 0.06 | 73 | 1011.3 |
| 20260504035149 | 56 | 263 | 0.0 | 1.0 | 0.00 | 0.06 | 0.06 | 73 | 1011.1 |
| 20260504034647 | 56 | 226 | 1.0 | 4.0 | 0.00 | 0.06 | 0.06 | 72 | 1011.2 |
| 20260504034143 | 56 | 219 | 2.0 | 2.0 | 0.00 | 0.06 | 0.06 | 72 | 1011.5 |
| 20260504033641 | 57 | 196 | 2.0 | 2.0 | 0.00 | 0.06 | 0.06 | 71 | 1011.6 |
| 20260504033138 | 57 | 234 | 1.0 | 2.0 | 0.00 | 0.06 | 0.06 | 70 | 1011.6 |
| 20260504032635 | 58 | 282 | 0.0 | 0.0 | 0.17 | 0.06 | 0.06 | 69 | 1012.1 |
| 20260504032132 | 59 | 194 | 2.0 | 2.0 | 0.35 | 0.06 | 0.06 | 67 | 1012.4 |
| 20260504031629 | 59 | 203 | 2.0 | 2.0 | 0.00 | 0.00 | 0.00 | 63 | 1013.0 |
| 20260504031125 | 59 | 316 | 2.0 | 2.0 | 0.00 | 0.00 | 0.00 | 62 | 1012.7 |
| 20260504030622 | 59 | 80 | 1.0 | 2.0 | 0.00 | 0.00 | 0.00 | 62 | 1012.2 |
| 20260504030119 | 59 | 24 | 2.0 | 2.0 | 0.00 | 0.00 | 0.00 | 63 | 1012.2 |
| 20260504025616 | 59 | 322 | 2.0 | 2.0 | 0.00 | 0.00 | 0.00 | 63 | 1011.8 |
| 20260504025113 | 59 | 20 | 2.0 | 2.0 | 0.00 | 0.00 | 0.00 | 63 | 1011.6 |
| 20260504024610 | 59 | 57 | 2.0 | 2.0 | 0.00 | 0.00 | 0.00 | 64 | 1011.8 |
| 20260504024107 | 59 | 290 | 0.0 | 1.0 | 0.00 | 0.00 | 0.00 | 62 | 1011.5 |
| 20260504023603 | 59 | 307 | 0.0 | 0.0 | 0.00 | 0.00 | 0.00 | 61 | 1011.7 |
| 20260504023059 | 60 | 278 | 0.0 | 0.0 | 0.00 | 0.00 | 0.00 | 60 | 1011.9 |
| 20260504022555 | 60 | 286 | 0.0 | 0.0 | 0.00 | 0.00 | 0.00 | 60 | 1011.7 |
| 20260504022051 | 60 | 283 | 0.0 | 0.0 | 0.00 | 0.00 | 0.00 | 60 | 1011.5 |
| 20260504021549 | 61 | 303 | 1.0 | 1.0 | 0.00 | 0.00 | 0.00 | 58 | 1011.7 |
| 20260504021046 | 61 | 266 | 0.0 | 1.0 | 0.00 | 0.00 | 0.00 | 57 | 1011.5 |
| 20260504020543 | 62 | 254 | 0.0 | 0.0 | 0.00 | 0.00 | 0.00 | 56 | 1011.8 |
| 20260504020039 | 62 | 304 | 0.0 | 1.0 | 0.00 | 0.00 | 0.00 | 55 | 1011.8 |
| 20260504015536 | 62 | 264 | 0.0 | 0.0 | 0.00 | 0.00 | 0.00 | 53 | 1011.9 |
| 20260504015031 | 62 | 270 | 0.0 | 0.0 | 0.00 | 0.00 | 0.00 | 52 | 1011.7 |
| 20260504014528 | 62 | 265 | 0.0 | 0.0 | 0.00 | 0.00 | 0.00 | 52 | 1011.5 |
| 20260504014025 | 62 | 243 | 1.0 | 2.0 | 0.00 | 0.00 | 0.00 | 52 | 1011.4 |
| 20260504013523 | 62 | 228 | 0.0 | 0.0 | 0.00 | 0.00 | 0.00 | 52 | 1011.6 |
| 20260504013020 | 62 | 225 | 1.0 | 2.0 | 0.00 | 0.00 | 0.00 | 52 | 1011.3 |
| 20260504012517 | 62 | 221 | 2.0 | 3.0 | 0.00 | 0.00 | 0.00 | 51 | 1011.0 |
| 20260504012015 | 63 | 211 | 1.0 | 3.0 | 0.00 | 0.00 | 0.00 | 51 | 1011.1 |
| 20260504011511 | 63 | 251 | 0.0 | 0.0 | 0.00 | 0.00 | 0.00 | 50 | 1011.1 |
| 20260504011008 | 63 | 194 | 1.0 | 2.0 | 0.00 | 0.00 | 0.00 | 50 | 1010.8 |
| 20260504010503 | 63 | 207 | 2.0 | 3.0 | 0.00 | 0.00 | 0.00 | 49 | 1010.8 |
| 20260504005959 | 64 | 195 | 2.0 | 6.0 | 0.00 | 0.00 | 0.00 | 49 | 1010.8 |
| 20260504005456 | 64 | 170 | 3.0 | 3.0 | 0.00 | 0.00 | 0.00 | 49 | 1010.8 |
| 20260504004954 | 64 | 199 | 2.0 | 3.0 | 0.00 | 0.00 | 0.00 | 49 | 1010.9 |
| 20260504004451 | 64 | 216 | 1.0 | 2.0 | 0.00 | 0.00 | 0.00 | 49 | 1010.9 |
| 20260504003948 | 64 | 215 | 2.0 | 3.0 | 0.00 | 0.00 | 0.00 | 48 | 1011.0 |
| 20260504003444 | 65 | 188 | 2.0 | 4.0 | 0.00 | 0.00 | 0.00 | 48 | 1011.2 |
| 20260504002941 | 65 | 178 | 1.0 | 4.0 | 0.00 | 0.00 | 0.00 | 48 | 1011.0 |
| 20260504002438 | 66 | 165 | 3.0 | 6.0 | 0.00 | 0.00 | 0.00 | 47 | 1011.0 |
| 20260504001936 | 66 | 172 | 5.0 | 7.0 | 0.00 | 0.00 | 0.00 | 46 | 1010.9 |
| 20260504001433 | 66 | 191 | 4.0 | 7.0 | 0.00 | 0.00 | 0.00 | 46 | 1010.8 |
| 20260504000930 | 66 | 188 | 3.0 | 4.0 | 0.00 | 0.00 | 0.00 | 46 | 1011.2 |
| 20260504000427 | 67 | 179 | 3.0 | 6.0 | 0.00 | 0.00 | 0.00 | 45 | 1011.2 |
| 20260503235924 | 67 | 195 | 4.0 | 6.0 | 0.00 | 0.00 | 0.00 | 44 | 1011.2 |
| 20260503235422 | 67 | 211 | 2.0 | 6.0 | 0.00 | 0.00 | 0.00 | 44 | 1011.2 |
| 20260503234919 | 67 | 209 | 3.0 | 8.0 | 0.00 | 0.00 | 0.00 | 43 | 1011.4 |
| 20260503234416 | 67 | 188 | 2.0 | 6.0 | 0.00 | 0.00 | 0.00 | 44 | 1011.5 |
| 20260503233914 | 68 | 254 | 2.0 | 8.0 | 0.00 | 0.00 | 0.00 | 42 | 1011.8 |
| 20260503233410 | 68 | 197 | 2.0 | 7.0 | 0.00 | 0.00 | 0.00 | 43 | 1011.8 |
| 20260503232907 | 68 | 149 | 8.0 | 9.0 | 0.00 | 0.00 | 0.00 | 43 | 1011.8 |
| 20260503232404 | 69 | 236 | 2.0 | 6.0 | 0.00 | 0.00 | 0.00 | 42 | 1011.7 |
| 20260503231902 | 69 | 183 | 5.0 | 8.0 | 0.00 | 0.00 | 0.00 | 42 | 1012.1 |
| 20260503231359 | 69 | 229 | 3.0 | 6.0 | 0.00 | 0.00 | 0.00 | 41 | 1012.1 |
| 20260503230855 | 69 | 210 | 6.0 | 10.0 | 0.00 | 0.00 | 0.00 | 40 | 1012.0 |
| 20260503230352 | 70 | 187 | 4.0 | 6.0 | 0.00 | 0.00 | 0.00 | 39 | 1012.2 |
| 20260503225850 | 70 | 161 | 6.0 | 9.0 | 0.00 | 0.00 | 0.00 | 40 | 1012.2 |
| 20260503225345 | 70 | 179 | 9.0 | 11.0 | 0.00 | 0.00 | 0.00 | 39 | 1012.2 |
| 20260503224842 | 70 | 175 | 6.0 | 9.0 | 0.00 | 0.00 | 0.00 | 38 | 1012.1 |
| 20260503224339 | 70 | 179 | 9.0 | 11.0 | 0.00 | 0.00 | 0.00 | 40 | 1012.0 |
| 20260503223837 | 70 | 177 | 5.0 | 13.0 | 0.00 | 0.00 | 0.00 | 39 | 1012.0 |
| 20260503223334 | 71 | 215 | 3.0 | 13.0 | 0.00 | 0.00 | 0.00 | 38 | 1011.7 |
| 20260503222830 | 71 | 239 | 2.0 | 9.0 | 0.00 | 0.00 | 0.00 | 39 | 1011.9 |
| 20260503222329 | 71 | 226 | 3.0 | 7.0 | 0.00 | 0.00 | 0.00 | 39 | 1011.7 |
| 20260503221826 | 71 | 168 | 4.0 | 10.0 | 0.00 | 0.00 | 0.00 | 40 | 1011.5 |
| 20260503221325 | 70 | 203 | 6.0 | 10.0 | 0.00 | 0.00 | 0.00 | 40 | 1011.5 |
| 20260503220815 | 69 | 168 | 6.0 | 9.0 | 0.00 | 0.00 | 0.00 | 41 | 1011.6 |
| 20260503220312 | 69 | 194 | 8.0 | 13.0 | 0.00 | 0.00 | 0.00 | 41 | 1011.5 |
| 20260503215808 | 68 | 196 | 6.0 | 9.0 | 0.00 | 0.00 | 0.00 | 42 | 1011.7 |
| 20260503215306 | 68 | 189 | 6.0 | 10.0 | 0.00 | 0.00 | 0.00 | 42 | 1011.8 |
| 20260503214804 | 68 | 165 | 4.0 | 7.0 | 0.00 | 0.00 | 0.00 | 45 | 1011.9 |
| 20260503214300 | 67 | 199 | 4.0 | 9.0 | 0.00 | 0.00 | 0.00 | 43 | 1011.6 |
| 20260503213758 | 67 | 197 | 5.0 | 10.0 | 0.00 | 0.00 | 0.00 | 44 | 1011.7 |
| 20260503213255 | 67 | 182 | 7.0 | 13.0 | 0.00 | 0.00 | 0.00 | 44 | 1011.6 |
| 20260503212752 | 67 | 150 | 5.0 | 14.0 | 0.00 | 0.00 | 0.00 | 46 | 1011.7 |
| 20260503212250 | 67 | 149 | 4.0 | 10.0 | 0.00 | 0.00 | 0.00 | 45 | 1012.0 |
| 20260503211747 | 67 | 171 | 8.0 | 13.0 | 0.00 | 0.00 | 0.00 | 46 | 1012.1 |
| 20260503211243 | 67 | 181 | 7.0 | 14.0 | 0.00 | 0.00 | 0.00 | 46 | 1012.3 |
| 20260503210739 | 67 | 232 | 3.0 | 9.0 | 0.00 | 0.00 | 0.00 | 46 | 1012.0 |
| 20260503210237 | 67 | 171 | 7.0 | 16.0 | 0.00 | 0.00 | 0.00 | 45 | 1012.3 |
| 20260503205732 | 67 | 188 | 8.0 | 11.0 | 0.00 | 0.00 | 0.00 | 47 | 1012.6 |
| 20260503205228 | 67 | 238 | 5.0 | 10.0 | 0.00 | 0.00 | 0.00 | 46 | 1012.6 |
| 20260503204724 | 67 | 214 | 5.0 | 13.0 | 0.00 | 0.00 | 0.00 | 47 | 1012.7 |
| 20260503204223 | 67 | 177 | 6.0 | 13.0 | 0.00 | 0.00 | 0.00 | 45 | 1012.9 |
| 20260503203720 | 67 | 191 | 4.0 | 13.0 | 0.00 | 0.00 | 0.00 | 46 | 1013.0 |
| 20260503203217 | 67 | 220 | 9.0 | 13.0 | 0.00 | 0.00 | 0.00 | 49 | 1013.2 |
| 20260503202714 | 67 | 249 | 4.0 | 13.0 | 0.00 | 0.00 | 0.00 | 48 | 1013.4 |
| 20260503202212 | 67 | 184 | 3.0 | 13.0 | 0.00 | 0.00 | 0.00 | 49 | 1013.4 |
| 20260503201710 | 66 | 189 | 4.0 | 10.0 | 0.00 | 0.00 | 0.00 | 46 | 1013.6 |
| 20260503201207 | 67 | 213 | 7.0 | 10.0 | 0.00 | 0.00 | 0.00 | 46 | 1013.6 |
| 20260503200703 | 66 | 195 | 4.0 | 8.0 | 0.00 | 0.00 | 0.00 | 48 | 1013.9 |
| 20260503200200 | 66 | 205 | 4.0 | 6.0 | 0.00 | 0.00 | 0.00 | 49 | 1014.2 |
| 20260503195656 | 65 | 163 | 4.0 | 7.0 | 0.00 | 0.00 | 0.00 | 48 | 1014.4 |
| 20260503195153 | 65 | 163 | 4.0 | 7.0 | 0.00 | 0.00 | 0.00 | 49 | 1014.3 |
| 20260503194650 | 64 | 182 | 7.0 | 9.0 | 0.00 | 0.00 | 0.00 | 48 | 1014.8 |
| 20260503194145 | 64 | 182 | 7.0 | 9.0 | 0.00 | 0.00 | 0.00 | 47 | 1014.6 |
| 20260503193642 | 64 | 182 | 7.0 | 11.0 | 0.00 | 0.00 | 0.00 | 46 | 1015.0 |
| 20260503193138 | 64 | 268 | 7.0 | 15.0 | 0.00 | 0.00 | 0.00 | 45 | 1015.1 |
| 20260503192634 | 64 | 230 | 7.0 | 10.0 | 0.00 | 0.00 | 0.00 | 47 | 1015.3 |
| 20260503192130 | 65 | 195 | 4.0 | 4.0 | 0.00 | 0.00 | 0.00 | 48 | 1015.3 |
| 20260503191627 | 64 | 248 | 6.0 | 8.0 | 0.00 | 0.00 | 0.00 | 48 | 1015.5 |
| 20260503191124 | 64 | 222 | 8.0 | 14.0 | 0.00 | 0.00 | 0.00 | 49 | 1015.4 |
| 20260503190621 | 64 | 356 | 5.0 | 10.0 | 0.00 | 0.00 | 0.00 | 49 | 1015.6 |
| 20260503190117 | 64 | 179 | 6.0 | 16.0 | 0.00 | 0.00 | 0.00 | 50 | 1015.8 |
| 20260503185614 | 64 | 168 | 7.0 | 11.0 | 0.00 | 0.00 | 0.00 | 52 | 1015.9 |
| 20260503185114 | 64 | 200 | 5.0 | 16.0 | 0.00 | 0.00 | 0.00 | 48 | 1016.0 |
| 20260503184609 | 63 | 175 | 6.0 | 9.0 | 0.00 | 0.00 | 0.00 | 53 | 1016.1 |
| 20260503184106 | 63 | 184 | 8.0 | 13.0 | 0.00 | 0.00 | 0.00 | 50 | 1016.3 |
| 20260503183603 | 63 | 212 | 4.0 | 10.0 | 0.00 | 0.00 | 0.00 | 49 | 1016.4 |
| 20260503183100 | 63 | 240 | 11.0 | 17.0 | 0.00 | 0.00 | 0.00 | 50 | 1016.4 |
| 20260503182558 | 63 | 177 | 2.0 | 10.0 | 0.00 | 0.00 | 0.00 | 50 | 1016.5 |
| 20260503182056 | 62 | 199 | 7.0 | 10.0 | 0.00 | 0.00 | 0.00 | 51 | 1016.5 |
| 20260503181553 | 62 | 211 | 5.0 | 15.0 | 0.00 | 0.00 | 0.00 | 47 | 1016.4 |
| 20260503181049 | 62 | 238 | 6.0 | 13.0 | 0.00 | 0.00 | 0.00 | 53 | 1016.6 |
| 20260503180546 | 62 | 222 | 5.0 | 10.0 | 0.00 | 0.00 | 0.00 | 52 | 1016.4 |
| 20260503180044 | 62 | 183 | 6.0 | 13.0 | 0.00 | 0.00 | 0.00 | 56 | 1016.9 |
| 20260503175541 | 62 | 222 | 6.0 | 8.0 | 0.00 | 0.00 | 0.00 | 53 | 1016.8 |
| 20260503175038 | 62 | 178 | 4.0 | 8.0 | 0.00 | 0.00 | 0.00 | 50 | 1017.2 |
| 20260503174535 | 61 | 168 | 4.0 | 11.0 | 0.00 | 0.00 | 0.00 | 55 | 1017.3 |
| 20260503174031 | 61 | 244 | 5.0 | 9.0 | 0.00 | 0.00 | 0.00 | 54 | 1017.3 |
| 20260503173527 | 61 | 162 | 4.0 | 14.0 | 0.00 | 0.00 | 0.00 | 51 | 1017.5 |
| 20260503173023 | 61 | 197 | 11.0 | 17.0 | 0.00 | 0.00 | 0.00 | 52 | 1017.7 |
| 20260503172521 | 61 | 265 | 7.0 | 15.0 | 0.00 | 0.00 | 0.00 | 54 | 1017.9 |
| 20260503172018 | 60 | 174 | 7.0 | 13.0 | 0.00 | 0.00 | 0.00 | 55 | 1017.8 |
| 20260503171514 | 60 | 174 | 9.0 | 13.0 | 0.00 | 0.00 | 0.00 | 54 | 1018.1 |
| 20260503171012 | 60 | 169 | 8.0 | 14.0 | 0.00 | 0.00 | 0.00 | 53 | 1018.1 |
| 20260503170508 | 60 | 182 | 7.0 | 13.0 | 0.00 | 0.00 | 0.00 | 53 | 1018.3 |
| 20260503150900 | 55 | 184 | 8.0 | 10.0 | 0.00 | 0.00 | 0.00 | 60 | 1019.8 |
| 20260503150356 | 55 | 210 | 3.0 | 11.0 | 0.00 | 0.00 | 0.00 | 62 | 1019.8 |
| 20260503131250 | 48 | 264 | 1.0 | 2.0 | 0.00 | 0.00 | 0.00 | 79 | 1020.5 |
| 20260503130748 | 48 | 214 | 2.0 | 4.0 | 0.00 | 0.00 | 0.00 | 80 | 1020.3 |
| 20260503130245 | 47 | 232 | 0.0 | 4.0 | 0.00 | 0.00 | 0.00 | 81 | 1020.2 |
| 20260503120211 | 42 | 241 | 1.0 | 2.0 | 0.00 | 0.00 | 0.00 | 86 | 1020.1 |
| 20260503110638 | 41 | 222 | 1.0 | 2.0 | 0.00 | 0.00 | 0.00 | 83 | 1019.7 |
| 20260503110136 | 41 | 215 | 1.0 | 2.0 | 0.00 | 0.00 | 0.00 | 82 | 1019.7 |
| 20260503081451 | 41 | 265 | 0.0 | 0.0 | 0.00 | 0.00 | 0.00 | 80 | 1020.1 |
| 20260503080948 | 41 | 265 | 0.0 | 0.0 | 0.00 | 0.00 | 0.00 | 80 | 1019.9 |
| 20260503080445 | 41 | 247 | 0.0 | 0.0 | 0.00 | 0.00 | 0.00 | 80 | 1020.0 |
| 20260503072921 | 41 | 252 | 0.0 | 0.0 | 0.00 | 0.00 | 0.00 | 79 | 1020.0 |
| 20260503072419 | 41 | 263 | 0.0 | 0.0 | 0.00 | 0.00 | 0.00 | 79 | 1019.9 |
| 20260503071915 | 41 | 262 | 0.0 | 0.0 | 0.00 | 0.00 | 0.00 | 79 | 1019.9 |
| 20260503071413 | 41 | 262 | 0.0 | 0.0 | 0.00 | 0.00 | 0.00 | 79 | 1019.9 |
| 20260503070908 | 41 | 262 | 0.0 | 0.0 | 0.00 | 0.00 | 0.00 | 79 | 1020.1 |
| 20260503070406 | 41 | 253 | 0.0 | 0.0 | 0.00 | 0.00 | 0.00 | 79 | 1020.0 |